Poplar Bluff, MO

1:04 AM CDT on March 26, 2017 (GMT -0500)
Poplar Bluff Municipal

Weather History for KPOF - December, 2011

Change the Weather History Date:

Friday, December 9, 2011

  Actual Average Record
Temperature  
Mean Temperature 36 °F -  
Max Temperature 46 °F 48 °F 71 °F (1923)
Min Temperature 27 °F 29 °F 3 °F (2005)
Degree Days  
Heating Degree Days 28    
Moisture  
Dew Point 28 °F    
Average Humidity 79    
Maximum Humidity 93    
Minimum Humidity 56    
Precipitation  
Precipitation 0.00 in - - ()
Sea Level Pressure  
Sea Level Pressure 30.35 in    
Wind  
Wind Speed 3 mph (North)    
Max Wind Speed 15 mph    
Max Gust Speed -    
Visibility 9 miles    
Events      
Averages and records for this station are not official NWS values.
T = Trace of Precipitation, MM = Missing Value Source: NWS Daily Summary

Daily Weather History Graph

Daily Weather History Graph

Search for Another Location

Airport or City:

Trip Planner

Search our weather history database for the weather conditions in past years. The results will help you decide how hot, cold, wet, or windy it might be!

Date:

Astronomy

Dec. 09, 2011 Rise Set
Actual Time 7:02 AM CST 4:45 PM CST
Civil Twilight 6:33 AM CST 5:13 PM CST
Nautical Twilight 6:00 AM CST 5:46 PM CST
Astronomical Twilight 5:29 AM CST 6:17 PM CST
Moon 4:08 PM CST (12/9) 6:09 AM CST (12/9)
Length of Visible Light 10h 40m
Length of Day
9h 42m
Waxing Gibbous, 99% of the Moon is Illuminated
Dec 9
Waxing Gibbous
Dec 10
Full
Dec 17
Last Quarter
Dec 24
New
Jan 1
First Quarter

Hourly Weather History & Observations

Time (CST) Temp. Windchill Dew Point Humidity Pressure Visibility Wind Dir Wind Speed Gust Speed Precip Events Conditions
12:53 AM 28.9 °F - 26.1 °F 89% 30.24 in 9.0 mi Calm Calm - N/A   Clear
1:53 AM 28.9 °F - 26.1 °F 89% 30.24 in 10.0 mi Calm Calm - N/A   Clear
2:53 AM 28.0 °F - 25.0 °F 88% 30.24 in 10.0 mi Calm Calm - N/A   Clear
3:53 AM 28.0 °F - 25.0 °F 88% 30.24 in 7.0 mi Calm Calm - N/A   Clear
4:53 AM 28.0 °F - 25.0 °F 88% 30.24 in 8.0 mi Calm Calm - N/A   Clear
5:53 AM 27.0 °F - 25.0 °F 92% 30.26 in 8.0 mi Calm Calm - N/A   Clear
7:38 AM 28.4 °F - 26.6 °F 93% 30.26 in 9.0 mi North - - N/A   Clear
7:45 AM 28.4 °F - 26.6 °F 93% 30.26 in 10.0 mi Calm Calm - N/A   Clear
7:53 AM 28.0 °F - 26.1 °F 92% 30.29 in 10.0 mi Calm Calm - N/A   Clear
8:53 AM 34.0 °F - 28.9 °F 82% 30.31 in 8.0 mi Calm Calm - N/A   Clear
10:53 AM 43.0 °F 38.2 °F 30.0 °F 60% 30.33 in 10.0 mi NE 8.1 mph - N/A   Clear
11:53 AM 46.0 °F 41.9 °F 30.9 °F 56% 30.33 in 10.0 mi North 8.1 mph - N/A   Clear
12:53 PM 46.9 °F - 32.0 °F 56% 30.32 in 10.0 mi North 9.2 mph - N/A   Clear
1:53 PM 46.9 °F - 33.1 °F 59% 30.32 in 10.0 mi NNE 9.2 mph - N/A   Scattered Clouds
2:53 PM 41.0 °F 33.1 °F 33.1 °F 73% 30.35 in 9.0 mi NNE 15.0 mph - N/A   Mostly Cloudy
3:26 PM 39.2 °F 30.8 °F 32.0 °F 75% 30.35 in 8.0 mi North 15.0 mph - N/A   Overcast
4:53 PM 37.9 °F 31.5 °F 30.9 °F 76% 30.41 in 9.0 mi North 9.2 mph - N/A   Overcast
5:19 PM 37.4 °F 30.3 °F 30.2 °F 75% 30.40 in 10.0 mi North 10.4 mph - N/A   Mostly Cloudy
5:53 PM 37.0 °F 31.6 °F 30.0 °F 76% 30.43 in 10.0 mi North 6.9 mph - N/A   Overcast
6:53 PM 35.1 °F 29.3 °F 28.9 °F 78% 30.46 in 10.0 mi North 6.9 mph - N/A   Clear
7:53 PM 33.1 °F 27.7 °F 27.0 °F 78% 30.47 in 10.0 mi NNW 5.8 mph - N/A   Clear
8:53 PM 32.0 °F - 27.0 °F 82% 30.48 in 10.0 mi Calm Calm - N/A   Clear
9:53 PM 30.9 °F 27.5 °F 26.1 °F 82% 30.49 in 10.0 mi NNW 3.5 mph - N/A   Clear
10:53 PM 30.9 °F 26.2 °F 26.1 °F 82% 30.50 in 10.0 mi North 4.6 mph - N/A   Clear
11:53 PM 28.9 °F 22.8 °F 25.0 °F 85% 30.51 in 10.0 mi NNW 5.8 mph - N/A   Clear